EW6750 Weather Reports


time (UTC)temp
C
wind
direction
speed
KPH
gust
KPH
rain 1hr
cm
rain 24hr
cm
rain mn
cm
humidity
%
barometer
mb
20260506031524 7 0.0 1.6 0.00 0.00 0.00 74 1015.7
20260506030521 7 90 1.6 3.2 0.00 0.00 0.00 70 1015.7
20260506025519 7 0.0 1.6 0.00 0.00 0.00 70 1015.7
20260506024614 7 90 0.0 3.2 0.00 0.00 0.00 70 1015.6
20260506023611 7 60 1.6 3.2 0.00 0.00 0.00 70 1015.5
20260506022607 7 100 0.0 3.2 0.00 0.00 0.00 69 1015.6
20260506021605 7 360 0.0 3.2 0.00 0.00 0.00 68 1015.5
20260506020600 7 134 1.6 4.8 0.00 0.00 0.00 67 1015.5
20260506015558 7 67 1.6 6.4 0.00 0.00 0.00 66 1015.5
20260506014553 7 52 1.6 9.7 0.00 0.00 0.00 66 1015.6
20260506013551 7 75 1.6 4.8 0.00 0.00 0.00 66 1015.6
20260506012548 8 16 0.0 3.2 0.00 0.00 0.00 67 1015.6
20260506011605 8 113 0.0 3.2 0.00 0.00 0.00 67 1015.8
20260506010541 8 45 1.6 3.2 0.00 0.00 0.00 68 1015.8
20260506005536 8 238 1.6 4.8 0.00 0.00 0.00 68 1015.8
20260506004553 8 79 1.6 4.8 0.00 0.00 0.00 70 1015.8
20260506003529 8 49 1.6 6.4 0.00 0.00 0.00 70 1015.9
20260506002525 8 353 1.6 4.8 0.00 0.00 0.00 69 1015.9
20260506001521 8 19 3.2 6.4 0.00 0.00 0.00 70 1015.9
20260506000518 8 8 3.2 6.4 0.00 0.00 0.00 70 1015.8
20260505235616 8 26 1.6 6.4 0.00 0.00 0.00 70 1015.9
20260505234613 8 356 3.2 6.4 0.00 0.00 0.00 70 1015.8
20260505233608 8 73 3.2 6.4 0.00 0.00 0.00 70 1015.9
20260505232626 8 125 3.2 6.4 0.00 0.00 0.00 70 1015.9
20260505231602 8 31 3.2 6.4 0.00 0.00 0.00 71 1015.9
20260505230557 8 0 1.6 3.2 0.00 0.00 0.00 72 1015.9
20260505225554 8 74 1.6 6.4 0.00 0.00 0.00 72 1015.9
20260505224550 8 271 1.6 4.8 0.00 0.00 0.00 71 1016.0
20260505223546 8 20 1.6 6.4 0.00 0.00 0.00 71 1016.0
20260505222543 8 81 1.6 6.4 0.00 0.00 0.00 71 1016.1
20260505221600 8 91 3.2 9.7 0.00 0.00 0.00 71 1016.0
20260505220537 8 122 4.8 6.4 0.00 0.00 0.00 71 1016.0
20260505215535 8 70 1.6 3.2 0.00 0.00 0.00 71 1015.9
20260505214530 8 339 3.2 6.4 0.00 0.00 0.00 71 1015.7
20260505213547 8 0 3.2 6.4 0.00 0.00 0.00 71 1015.7
20260505212649 9 97 3.2 6.4 0.00 0.00 0.00 71 1015.7
20260505211521 9 344 4.8 8.0 0.00 0.00 0.00 71 1015.7
20260505210516 9 203 3.2 6.4 0.00 0.00 0.00 71 1015.7
20260505205612 9 6 4.8 6.4 0.00 0.00 0.00 71 1015.7
20260505204609 9 343 4.8 12.9 0.00 0.00 0.00 71 1015.7
20260505203628 9 19 4.8 6.4 0.00 0.00 0.00 71 1015.7
20260505202604 9 45 3.2 4.8 0.00 0.00 0.00 71 1015.6
20260505201600 9 58 3.2 6.4 0.00 0.00 0.00 72 1015.5
20260505200555 10 360 4.8 11.3 0.00 0.00 0.00 72 1015.4
20260505195553 10 339 3.2 6.4 0.00 0.00 0.00 72 1015.4
20260505194549 10 59 3.2 6.4 0.00 0.00 0.00 72 1015.2
20260505193546 10 9 3.2 6.4 0.00 0.00 0.00 72 1015.0
20260505192541 10 37 3.2 6.4 0.00 0.00 0.00 71 1015.0
20260505191538 10 0 3.2 6.4 0.00 0.00 0.00 71 1014.9
20260505190554 10 90 3.2 4.8 0.00 0.00 0.00 70 1014.9
20260505185532 11 60 1.6 4.8 0.00 0.00 0.00 70 1014.9
20260505184547 11 104 1.6 4.8 0.00 0.00 0.00 69 1014.8
20260505183523 11 86 3.2 8.0 0.00 0.00 0.00 70 1014.7
20260505182541 11 333 3.2 6.4 0.00 0.00 0.00 70 1014.7
20260505181556 11 90 3.2 6.4 0.00 0.00 0.00 70 1014.6
20260505180633 11 60 3.2 6.4 0.00 0.00 0.00 70 1014.6
20260505175611 12 54 4.8 9.7 0.00 0.00 0.00 70 1014.6
20260505174606 12 27 3.2 8.0 0.00 0.00 0.00 70 1014.6
20260505173603 12 264 6.4 12.9 0.00 0.00 0.00 70 1014.4
20260505172601 12 53 1.6 6.4 0.00 0.00 0.00 70 1014.6
20260505171557 12 120 1.6 8.0 0.00 0.00 0.00 70 1014.6
20260505170552 12 90 3.2 4.8 0.00 0.00 0.00 69 1014.7
20260505165550 12 63 3.2 8.0 0.00 0.00 0.00 70 1014.6
20260505164547 12 5 3.2 6.4 0.00 0.00 0.00 67 1014.7
20260505163542 12 0 4.8 6.4 0.00 0.00 0.00 63 1014.6
20260505162539 13 153 1.6 8.0 0.00 0.00 0.00 60 1014.5
20260505161535 13 1 1.6 4.8 0.00 0.00 0.00 60 1014.3
20260505160531 13 9 1.6 6.4 0.00 0.00 0.00 60 1014.3
20260505152556 14 90 0.0 3.2 0.00 0.00 0.00 52 1014.5
20260505151615 14 0.0 0.0 0.00 0.00 0.00 51 1014.4
20260505150631 14 0.0 1.6 0.00 0.00 0.00 51 1014.5
20260505140551 14 104 1.6 3.2 0.00 0.00 0.00 51 1014.6
20260505124522 14 125 0.0 4.8 0.00 0.00 0.00 60 1014.5
20260505123517 13 82 1.6 3.2 0.00 0.00 0.00 61 1014.8
20260505122614 12 110 1.6 4.8 0.00 0.00 0.00 61 1014.8
20260505121611 12 2 0.0 3.2 0.00 0.00 0.00 61 1014.6
20260505120607 12 291 1.6 4.8 0.00 0.00 0.00 61 1014.8
20260505115604 12 126 3.2 4.8 0.00 0.00 0.00 59 1014.8
20260505114623 13 49 1.6 4.8 0.00 0.00 0.00 56 1014.8
20260505113557 13 87 3.2 6.4 0.00 0.00 0.00 54 1014.8
20260505112554 13 147 1.6 4.8 0.00 0.00 0.00 55 1014.9
20260505111550 13 17 1.6 4.8 0.00 0.00 0.00 54 1015.0
20260505110548 13 135 3.2 3.2 0.00 0.00 0.00 52 1014.9
20260505101529 13 120 1.6 4.8 0.00 0.00 0.00 54 1015.0
20260505100527 13 121 1.6 6.4 0.00 0.00 0.00 55 1015.0
20260505095522 12 88 1.6 3.2 0.00 0.00 0.00 56 1015.1
20260505094519 12 93 1.6 3.2 0.00 0.00 0.00 61 1015.1
20260505093617 12 102 3.2 4.8 0.00 0.00 0.00 61 1015.1
20260505092716 12 213 3.2 6.4 0.00 0.00 0.00 60 1015.2
20260505091609 12 146 3.2 8.0 0.00 0.00 0.00 56 1015.1
20260505090624 12 203 3.2 4.8 0.00 0.00 0.00 63 1015.1
20260505085621 11 90 1.6 4.8 0.00 0.00 0.00 65 1015.1
20260505084557 11 113 1.6 4.8 0.00 0.00 0.00 65 1015.3
20260505083554 11 93 3.2 8.0 0.00 0.00 0.00 74 1015.3
20260505082552 11 147 3.2 6.4 0.00 0.00 0.00 89 1015.4
20260505081548 10 85 1.6 6.4 0.00 0.00 0.00 96 1015.3
20260505080543 9 135 1.6 3.2 0.00 0.00 0.00 97 1015.4
20260505075540 8 0.0 1.6 0.00 0.00 0.00 97 1015.5
20260505074558 8 45 0.0 4.8 0.00 0.00 0.00 96 1015.4
20260505073535 8 0.0 0.0 0.00 0.00 0.00 96 1015.5
20260505072530 7 0.0 1.6 0.00 0.00 0.00 96 1015.4
20260505071548 7 45 0.0 3.2 0.00 0.00 0.00 95 1015.5
20260505070524 7 90 1.6 3.2 0.00 0.00 0.00 99 1015.6
20260505065601 6 0.0 0.0 0.00 0.00 0.00 99 1015.5
20260505064518 6 0.0 0.0 0.00 0.00 0.00 99 1015.6
20260505063634 6 0.0 1.6 0.00 0.00 0.00 98 1015.6
20260505062632 6 0.0 0.0 0.00 0.00 0.00 98 1015.7
20260505061607 5 0.0 0.0 0.00 0.00 0.00 97 1015.5
20260505060602 5 0.0 0.0 0.00 0.00 0.00 97 1015.7
20260505055558 5 0 0.0 3.2 0.00 0.00 0.00 96 1015.5
20260505054556 5 0.0 0.0 0.00 0.00 0.00 96 1015.5
20260505053634 4 0.0 0.0 0.00 0.00 0.00 95 1015.4
20260505052547 4 0.0 0.0 0.00 0.00 0.00 95 1015.4
20260505051545 4 0.0 0.0 0.00 0.00 0.00 95 1015.3
20260505050540 4 0.0 0.0 0.00 0.00 0.00 95 1015.2
20260505041605 5 0.0 0.0 0.00 0.00 0.00 94 1015.0
20260505040541 5 0.0 0.0 0.00 0.00 0.00 94 1014.9
20260505035516 5 0.0 0.0 0.00 0.00 0.00 93 1014.9
20260505034614 5 0.0 0.0 0.00 0.00 0.00 93 1014.9
20260505033611 5 0.0 0.0 0.00 0.00 0.00 93 1014.9
20260505032606 5 0.0 0.0 0.00 0.00 0.00 93 1015.0